Hourly Data Report for September 21, 2017

All times are specified in Local Standard Time (LST). Add 1 hour to adjust for Daylight Saving Time where and when it is observed.

KITCHENER/WATERLOO
ONTARIO

43°27'39.000" N
80°22'43.000" W
321.60 m
6144239
71368
YKF

Download Data

Hourly Data (September 2017)
Hourly Data Report for September 21, 2017
Temp Definition
°C
Dew Point Temp Definition
°C
Rel Hum Definition
%
Wind Dir Definition
10's deg

Wind Spd Definition
km/h
Visibility Definition
km
Stn Press Definition
kPa
Hmdx Definition


Wind Chill Definition


Weather Definition


TIME
00:00 Legend Double Dagger 14.3 14.2 99 1 5 2.4 98.02     Fog
01:00 Legend Double Dagger 13.4 13.3 99 30 8 2.0 98.11     Fog
02:00 Legend Double Dagger 13.4 13.3 99 LegendMM 4 0.6 98.16     Fog
03:00 Legend Double Dagger 12.3 12.2 99 4 4 1.6 98.15     Fog
04:00 Legend Double Dagger 13.1 13.0 99 LegendMM 4 1.6 98.16     Fog
05:00 Legend Double Dagger 13.1 13.1 100 33 5 1.2 98.17     Fog
06:00 Legend Double Dagger 13.2 13.2 100   0 0.2 98.18     Fog
07:00 Legend Double Dagger 14.9 14.8 99 35 4 4.8 98.21     Fog
08:00 Legend Double Dagger 18.7 17.2 91 10 5 9.7 98.22     Fog
09:00 Legend Double Dagger 22.5 18.1 76 12 17 16.1 98.27 29   LegendNANA
10:00 Legend Double Dagger 24.0 17.9 68 14 13 16.1 98.26 30   LegendNANA
11:00 Legend Double Dagger 25.5 17.2 60 12 17 16.1 98.22 31   LegendNANA
12:00 Legend Double Dagger 27.0 15.5 49 16 15 14.5 98.21 31   LegendNANA
13:00 Legend Double Dagger 27.5 14.9 46 15 13 12.9 98.19 31   LegendNANA
14:00 Legend Double Dagger 28.2 13.1 39 16 11 8.1 98.16 31   Haze
15:00 Legend Double Dagger 28.6 14.1 41 18 11 12.9 98.16 32   LegendNANA
16:00 Legend Double Dagger 28.3 14.3 42 LegendMM 4 16.1 98.14 32   LegendNANA
17:00 Legend Double Dagger 27.1 16.3 51 11 11 16.1 98.13 32   LegendNANA
18:00 Legend Double Dagger 23.7 16.6 64 10 11 16.1 98.13 29   LegendNANA
19:00 Legend Double Dagger 19.8 16.5 81 8 8 16.1 98.18     LegendNANA
20:00 Legend Double Dagger 19.2 16.3 83 11 9 16.1 98.23     LegendNANA
21:00 Legend Double Dagger 18.0 15.7 86 LegendMM 4 16.1 98.27     LegendNANA
22:00 Legend Double Dagger 17.0 15.4 90   0 16.1 98.26     LegendNANA
23:00 Legend Double Dagger 16.3 15.1 93 35 4 16.1 98.27     LegendNANA

Notes on Data Quality.

Legend

  • E = Estimated
  • M = Missing
  • NA = Not Available
  • ‡ = Partner data that is not subject to review by the National Climate Archives
Date modified: